Skip Page Navigation
NASA JPL Caltech
NASA Logo - Jet Propulsion Laboratory + View the NASA Portal
+ Near-Earth Object (NEO) Program
Search JPL
JPL Home Earth Solar System Stars & Galaxies Technology
JPL Solar System Dynamics
BODIES ORBITS EPHEMERIDES TOOLS PHYSICAL DATA DISCOVERY FAQ SITE MAP
JPL Small-Body Database Browser
Search: [ help ]  
10983 Smolders (3196 T-3)
Classification: Main-belt Asteroid          SPK-ID: 2010983
Ephemeris | Orbit Diagram | Orbital Elements | Physical Parameters | Discovery Circumstances ]

[ show orbit diagram ]
Orbital Elements at Epoch 2456400.5 (2013-Apr-18.0) TDB
Reference: MPO256946 (heliocentric ecliptic J2000)
 Element Value Uncertainty (1-sigma)   Units 
e 0.1904048 n/a  
a 2.4215578 n/a AU
q 1.9604816 n/a AU
i 2.34166 n/a deg
node 80.61664 n/a deg
peri 225.39754 n/a deg
M 202.62003 n/a deg
tp 2457002.2105743
(2014-Dec-10.71057430)
n/a JED
period 1376.3873937
3.77
n/a
n/a
d
yr
n 0.26155427 n/a deg/d
Q 2.8826340 n/a AU
  Orbit Determination Parameters
   # obs. used (total)      655  
   first obs. used      1977-??-??  
   last obs. used      2013-03-04  
   # oppositions      14  
   planetary ephem.      DE403  
   condition code      0  
   fit RMS      0.56  
   data source      MPC:mpn  
   producer      MPCLINUX  

Additional Information
 T_jup = 3.487 

Ephemeris | Orbit Diagram | Orbital Elements | Physical Parameters | Discovery Circumstances ]

Physical Parameter Table
Parameter Symbol Value Units Sigma Reference Notes
absolute magnitude H 15.0 mag n/a PDS3 (MPC 34818)  

10983 Smolders           Discovered 1977 Oct. 16 by C. J. van Houten and I. van Houten-Groeneveld on Palomar Schmidt plates taken by T. Gehrels.
The Dutch scientist, writer and journalist Petrus L. L. Smolders (b. 1940) has contributed to the popularization of spaceflight and astronomy in the Netherlands. The name was suggested by W. A. Fröger.
NOTE: some special characters may not display properly (any characters within {} are an attempt to place the proper accent above a character)
Reference: 20070730/MPCPages.arcLast Updated: 2007-08-07

Alternate Designations
 3196 T-3 = 1992 SL2 
Ephemeris | Orbit Diagram | Orbital Elements | Physical Parameters | Discovery Circumstances ]
ABOUT SSD CREDITS/AWARDS PRIVACY/COPYRIGHT GLOSSARY LINKS
FirstGov 2013-May-25 06:19 UT
(server date/time)  
NASA Home Page
Site Manager:   Donald K. Yeomans
Webmaster  Alan B. Chamberlin